Location: Newark
(45.5000°N, 11.4167°E)
Time: 07:35:14
(UTC+00:00)

Vanguard 3 - Pass Details

Date: 31 August 2019
Orbit: 508 x 3262 km, 33.3° (Epoch: 17 October)

Event Time Altitude Azimuth Distance (km) Brightness Sun altitude
Rises 18:36:22 0° 264° (W) 4,279 12.1 -7.8°
Reaches altitude 10° 18:42:19 10° 232° (SW) 2,616 10.2 -8.8°
Maximum altitude 18:43:45 11° 218° (SW) 2,402 9.8 -9.0°
Drops below altitude 10° 18:45:03 10° 203° (SSW) 2,325 9.5 -9.2°
Enters shadow 18:49:06 - 164° (SSE) 2,867 9.6 -9.9°
Sets 18:49:07 0° 164° (SSE) 2,870 - -9.9°
